Location: ?????? ??????
(44.3742°N, 135.2221°E)
Time: 03:08:50
(UTC+00:00)

Cosmos 1459 Rocket - Pass Details

Date: 19 May 2025
Orbit: 936 x 998 km, 83.0° (Epoch: 15 June)

Event Time Altitude Azimuth Distance (km) Brightness Sun altitude
Rises 15:59:30 0° 347° (NNW) 3,625 7.9 -24.1°
Reaches altitude 10° 16:02:02 10° 343° (NNW) 2,683 7.0 -23.9°
Maximum altitude 16:07:57 52° 269° (W) 1,182 4.2 -23.6°
Enters shadow 16:09:11 45° 232° (SW) 1,288 4.2 -23.5°
